Total_Precipitation_Accumulation
0.00 0.00 0.00 0.00 0.00 0.00 0.00 0.00 0.00 0.00 0.00 0.00 0.00 0.00 0.00 0.02 0.04 0.04 0.08 0.17 0.43 0.78 0.93 0.98 0.99 0.86 0.87 0.89 0.87 0.93 1.03 1.20 1.31 1.43 1.46 1.44 1.29 1.20 1.04 0.95 0.88 0.91 0.95 1.12
0.00 0.00 0.00 0.00 0.00 0.00 0.00 0.00 0.00 0.00 0.00 0.00 0.00 0.00 0.01 0.02 0.02 0.04 0.06 0.13 0.26 0.49 0.75 0.80 0.77 0.70 0.75 0.98 1.11 1.14 1.12 1.20 1.28 1.54 1.84 2.02 2.04 1.78 1.41 1.27 1.21 1.12 1.12 1.23
0.00 0.00 0.00 0.00 0.00 0.00 0.00 0.00 0.00 0.00 0.00 0.00 0.00 0.00 0.01 0.02 0.04 0.08 0.13 0.18 0.27 0.38 0.47 0.55 0.59 0.65 0.74 0.89 0.93 0.90 0.87 0.97 1.02 1.17 1.47 1.71 1.97 1.90 1.66 1.45 1.36 1.29 1.27 1.26
0.00 0.00 0.00 0.00 0.00 0.00 0.00 0.00 0.00 0.00 0.00 0.00 0.00 0.00 0.00 0.02 0.05 0.15 0.19 0.26 0.45 0.55 0.52 0.59 0.64 0.68 0.69 0.70 0.66 0.63 0.70 0.81 0.93 1.08 1.31 1.60 1.85 1.81 1.75 1.70 1.50 1.32 1.19 1.11
0.00 0.00 0.00 0.00 0.00 0.00 0.00 0.00 0.00 0.00 0.00 0.00 0.00 0.00 0.00 0.01 0.06 0.15 0.22 0.34 0.55 0.57 0.52 0.57 0.59 0.62 0.66 0.67 0.65 0.65 0.73 0.86 0.98 1.09 1.21 1.38 1.74 1.74 1.60 1.48 1.33 1.21 1.10 1.03
0.00 0.00 0.00 0.00 0.00 0.00 0.00 0.00 0.00 0.00 0.00 0.01 0.02 0.02 0.02 0.03 0.09 0.15 0.20 0.33 0.42 0.45 0.49 0.55 0.58 0.60 0.59 0.60 0.63 0.65 0.68 0.76 0.84 0.89 0.97 1.03 1.21 1.28 1.20 1.14 1.07 0.98 0.89 0.86
0.01 0.00 0.01 0.01 0.01 0.01 0.00 0.02 0.06 0.06 0.09 0.11 0.11 0.08 0.08 0.08 0.07 0.10 0.20 0.36 0.48 0.49 0.45 0.49 0.55 0.58 0.60 0.59 0.60 0.62 0.62 0.66 0.64 0.62 0.61 0.64 0.74 0.86 0.90 0.91 0.91 0.87 0.76 0.70
0.02 0.03 0.03 0.02 0.02 0.04 0.04 0.07 0.21 0.18 0.10 0.07 0.07 0.07 0.17 0.16 0.16 0.16 0.21 0.30 0.37 0.38 0.37 0.38 0.41 0.46 0.50 0.52 0.54 0.54 0.53 0.55 0.57 0.56 0.58 0.55 0.58 0.70 0.79 0.88 0.84 0.80 0.69 0.59
0.01 0.01 0.02 0.01 0.02 0.04 0.12 0.15 0.15 0.28 0.25 0.17 0.06 0.07 0.21 0.26 0.33 0.36 0.39 0.40 0.39 0.37 0.35 0.34 0.35 0.38 0.38 0.39 0.40 0.44 0.47 0.53 0.57 0.59 0.58 0.54 0.58 0.71 0.78 0.83 0.87 0.90 0.89 0.79
0.01 0.01 0.01 0.01 0.02 0.04 0.06 0.09 0.15 0.26 0.27 0.22 0.10 0.14 0.35 0.57 0.60 0.54 0.56 0.56 0.48 0.39 0.33 0.30 0.26 0.25 0.24 0.27 0.33 0.44 0.56 0.60 0.54 0.50 0.47 0.44 0.52 0.70 0.74 0.71 0.73 0.83 0.89 0.89
0.00 0.00 0.01 0.04 0.04 0.04 0.06 0.10 0.18 0.25 0.23 0.24 0.24 0.25 0.25 0.44 0.57 0.55 0.53 0.52 0.46 0.37 0.31 0.28 0.23 0.19 0.19 0.22 0.28 0.39 0.46 0.52 0.50 0.44 0.40 0.38 0.41 0.48 0.55 0.58 0.60 0.67 0.74 0.79
0.00 0.01 0.02 0.03 0.02 0.03 0.06 0.10 0.19 0.31 0.32 0.34 0.38 0.36 0.20 0.26 0.35 0.36 0.35 0.32 0.29 0.26 0.22 0.19 0.19 0.19 0.20 0.23 0.28 0.32 0.35 0.37 0.40 0.39 0.37 0.38 0.38 0.36 0.35 0.39 0.44 0.48 0.53 0.57
0.01 0.04 0.03 0.04 0.08 0.08 0.08 0.07 0.12 0.17 0.24 0.27 0.35 0.38 0.27 0.31 0.36 0.40 0.42 0.39 0.32 0.25 0.22 0.21 0.20 0.20 0.22 0.27 0.31 0.33 0.39 0.39 0.41 0.39 0.38 0.41 0.40 0.37 0.31 0.30 0.32 0.34 0.33 0.32
0.00 0.01 0.02 0.03 0.04 0.03 0.05 0.07 0.12 0.18 0.26 0.24 0.23 0.31 0.40 0.44 0.46 0.43 0.41 0.39 0.35 0.25 0.18 0.19 0.21 0.22 0.24 0.27 0.28 0.28 0.33 0.39 0.44 0.48 0.55 0.54 0.49 0.44 0.36 0.30 0.27 0.25 0.24 0.23
0.00 0.00 0.00 0.01 0.02 0.03 0.04 0.05 0.10 0.14 0.18 0.30 0.24 0.26 0.35 0.39 0.42 0.41 0.34 0.28 0.25 0.21 0.19 0.19 0.22 0.25 0.25 0.25 0.26 0.26 0.29 0.33 0.37 0.42 0.52 0.57 0.51 0.45 0.38 0.30 0.24 0.23 0.21 0.18
0.00 0.00 0.01 0.02 0.06 0.08 0.07 0.06 0.07 0.10 0.11 0.16 0.19 0.24 0.22 0.22 0.27 0.30 0.28 0.26 0.24 0.23 0.20 0.17 0.17 0.17 0.20 0.21 0.20 0.21 0.23 0.24 0.27 0.30 0.36 0.43 0.44 0.40 0.34 0.27 0.21 0.18 0.16 0.16
0.01 0.01 0.01 0.03 0.06 0.10 0.14 0.10 0.08 0.07 0.06 0.13 0.26 0.30 0.21 0.22 0.26 0.27 0.22 0.19 0.18 0.15 0.12 0.10 0.12 0.12 0.11 0.10 0.11 0.16 0.19 0.21 0.27 0.29 0.31 0.37 0.42 0.41 0.31 0.21 0.19 0.17 0.16 0.17
0.01 0.02 0.03 0.07 0.09 0.16 0.13 0.03 0.02 0.05 0.05 0.05 0.14 0.16 0.15 0.16 0.15 0.12 0.10 0.09 0.08 0.06 0.05 0.04 0.04 0.05 0.04 0.04 0.08 0.13 0.17 0.24 0.29 0.32 0.35 0.38 0.40 0.40 0.34 0.27 0.24 0.25 0.25 0.24
0.01 0.01 0.02 0.05 0.07 0.09 0.04 0.02 0.03 0.07 0.08 0.03 0.06 0.08 0.07 0.05 0.07 0.08 0.04 0.02 0.01 0.01 0.01 0.01 0.02 0.03 0.03 0.06 0.11 0.18 0.26 0.34 0.36 0.37 0.36 0.37 0.41 0.46 0.46 0.39 0.32 0.30 0.30 0.28
0.00 0.01 0.01 0.02 0.05 0.09 0.05 0.03 0.04 0.06 0.14 0.07 0.04 0.04 0.03 0.03 0.10 0.13 0.04 0.00 0.00 0.00 0.01 0.01 0.03 0.05 0.08 0.11 0.15 0.22 0.32 0.39 0.41 0.39 0.36 0.36 0.39 0.45 0.52 0.52 0.44 0.37 0.37 0.32
0.00 0.01 0.01 0.02 0.04 0.04 0.01 0.03 0.04 0.12 0.19 0.03 0.01 0.01 0.01 0.03 0.07 0.06 0.02 0.00 0.00 0.01 0.01 0.02 0.06 0.08 0.10 0.11 0.15 0.24 0.33 0.39 0.37 0.34 0.35 0.41 0.45 0.50 0.55 0.59 0.57 0.52 0.47 0.42
0.00 0.01 0.01 0.03 0.07 0.08 0.01 0.00 0.02 0.04 0.03 0.01 0.01 0.01 0.01 0.01 0.01 0.00 0.00 0.01 0.01 0.01 0.02 0.04 0.09 0.13 0.12 0.12 0.17 0.24 0.30 0.32 0.34 0.35 0.40 0.45 0.52 0.49 0.53 0.69 0.73 0.75 0.69 0.57
0.00 0.01 0.01 0.02 0.04 0.02 0.01 0.00 0.01 0.01 0.01 0.01 0.01 0.01 0.01 0.01 0.01 0.01 0.01 0.01 0.01 0.01 0.03 0.06 0.10 0.13 0.17 0.22 0.25 0.30 0.29 0.31 0.37 0.43 0.49 0.49 0.50 0.54 0.62 0.69 0.72 0.72 0.69 0.63
0.00 0.00 0.01 0.03 0.02 0.01 0.01 0.01 0.01 0.00 0.00 0.00 0.00 0.01 0.01 0.01 0.01 0.01 0.01 0.02 0.02 0.03 0.06 0.09 0.15 0.23 0.29 0.37 0.38 0.35 0.34 0.38 0.45 0.54 0.61 0.63 0.61 0.59 0.60 0.68 0.70 0.69 0.63 0.61
0.00 0.00 0.02 0.04 0.02 0.01 0.01 0.01 0.00 0.00 0.00 0.00 0.00 0.01 0.01 0.02 0.02 0.02 0.02 0.03 0.04 0.05 0.07 0.11 0.19 0.27 0.31 0.38 0.47 0.46 0.50 0.58 0.64 0.62 0.61 0.63 0.67 0.74 0.76 0.73 0.75 0.74 0.69 0.61
0.01 0.02 0.03 0.04 0.04 0.04 0.03 0.01 0.00 0.00 0.00 0.01 0.01 0.01 0.02 0.03 0.03 0.02 0.02 0.03 0.04 0.06 0.10 0.14 0.20 0.27 0.33 0.42 0.48 0.51 0.57 0.66 0.74 0.72 0.66 0.67 0.71 0.74 0.77 0.78 0.70 0.62 0.57 0.49